📊 Raw Sensor Data
Showing records 39226 to 39250 of 84,942 total
| ID | Distance (ft) | Battery V | Battery A | Int Temp (°F) | Int Humid (%) | Ext Temp (°F) | Solar V | RSSI | SNR | Time Stamp |
|---|---|---|---|---|---|---|---|---|---|---|
| 45729 | 15.5 | 3.92 | 0 | 96 | 46 | 88 | 5.10 | -69 | 8 | 07/08/2025 05:00 PM |
| 45728 | 15.6 | 3.92 | 0 | 97 | 45 | 88 | 5.10 | -69 | 8 | 07/08/2025 04:45 PM |
| 45727 | 15.6 | 3.95 | 8 | 96 | 45 | 88 | 5.10 | -69 | 8 | 07/08/2025 04:30 PM |
| 45726 | 15.5 | 3.92 | 9 | 96 | 44 | 86 | 5.10 | -68 | 7 | 07/08/2025 04:15 PM |
| 45725 | 15.6 | 3.93 | 0 | 95 | 43 | 88 | 5.10 | -69 | 8 | 07/08/2025 03:45 PM |
| 45724 | 15.6 | 3.92 | 9 | 94 | 43 | 83 | 5.10 | -67 | 7 | 07/08/2025 03:30 PM |
| 45723 | 15.6 | 3.92 | 0 | 94 | 43 | 88 | 5.10 | -67 | 7 | 07/08/2025 03:15 PM |
| 45722 | 15.6 | 3.92 | 9 | 93 | 42 | 81 | 5.10 | -66 | 8 | 07/08/2025 03:00 PM |
| 45721 | 15.6 | 3.92 | 9 | 92 | 42 | 85 | 5.10 | -69 | 8 | 07/08/2025 02:45 PM |
| 45720 | 15.6 | 3.92 | 9 | 91 | 42 | 85 | 5.10 | -70 | 7 | 07/08/2025 02:30 PM |
| 45719 | 15.6 | 3.92 | 8 | 90 | 42 | 82 | 5.10 | -67 | 7 | 07/08/2025 02:15 PM |
| 45718 | 15.6 | 3.92 | 0 | 90 | 41 | 81 | 5.10 | -68 | 8 | 07/08/2025 02:00 PM |
| 45717 | 15.5 | 3.92 | 0 | 88 | 42 | 81 | 5.10 | -67 | 8 | 07/08/2025 01:45 PM |
| 45716 | 15.5 | 4.09 | 0 | 87 | 42 | 80 | 5.10 | -67 | 8 | 07/08/2025 01:30 PM |
| 45715 | 15.6 | 3.92 | 8 | 86 | 42 | 80 | 5.10 | -68 | 8 | 07/08/2025 01:15 PM |
| 45714 | 15.6 | 3.92 | 9 | 86 | 42 | 80 | 5.10 | -67 | 8 | 07/08/2025 01:00 PM |
| 45713 | 15.6 | 3.92 | 9 | 84 | 42 | 80 | 5.10 | -68 | 7 | 07/08/2025 12:45 PM |
| 45712 | 15.6 | 3.92 | 9 | 82 | 43 | 78 | 5.10 | -67 | 8 | 07/08/2025 12:30 PM |
| 45711 | 15.6 | 4.00 | 9 | 81 | 43 | 81 | 5.10 | -66 | 8 | 07/08/2025 12:15 PM |
| 45710 | 15.6 | 3.91 | 7 | 79 | 43 | 81 | 5.10 | -67 | 8 | 07/08/2025 12:00 PM |
| 45709 | 15.6 | 3.91 | 0 | 78 | 43 | 79 | 5.10 | -69 | 8 | 07/08/2025 11:45 AM |
| 45708 | 15.6 | 3.91 | 0 | 77 | 43 | 79 | 5.10 | -66 | 8 | 07/08/2025 11:30 AM |
| 45707 | 15.6 | 3.91 | 0 | 76 | 43 | 77 | 5.10 | -67 | 8 | 07/08/2025 11:15 AM |
| 45706 | 15.6 | 3.92 | 9 | 76 | 42 | 74 | 5.10 | -66 | 8 | 07/08/2025 11:00 AM |
| 45705 | 15.7 | 3.91 | 0 | 75 | 42 | 74 | 5.10 | -66 | 8 | 07/08/2025 10:45 AM |